Weather Roundup
Issued by NWS Chicago, IL

Home | Current Version | Previous Version | Graphics & Text | Print | Product List | Glossary On
Versions: 1 2 3 4 5 6 7 8 9 10 11 12 13 14 15 16 17 18 19 20 21 22 23 24 25 26 27 28 29 30 31 32 33 34 35 36 37 38 39 40 41 42 43 44 45 46 47 48 49 50
000
NZUS59 KLOT 051321
HRRLOT

CHICAGO AREA WEATHER ROUNDUP
NATIONAL WEATHER SERVICE CHICAGO/ROMEOVILLE IL
800 AM CDT TUE MAY 05 2015

NOTE: "FAIR" INDICATES FEW OR NO CLOUDS BELOW 12,000 FEET WITH NO
SIGNIFICANT WEATHER AND/OR OBSTRUCTIONS TO VISIBILITY.

* THESE STATIONS ARE NOT UNDER NWS QUALITY CONTROL. THEY ALSO MAY NOT
  REPORT WEATHER SUCH AS PRECIPITATION OR FOG.

ILZ005-006-012>014-019>023-051400-
NORTHEAST ILLINOIS

CITY           SKY/WX    TMP DP  RH WIND       PRES   REMARKS
OHARE          CLOUDY    51  50  96 NE12      30.17S
MIDWAY         LGT RAIN  54  52  93 E15       30.19F FOG
AURORA         CLOUDY    56  52  86 E12       30.18R
LANSING*       CLOUDY    51  49  93 NE6       30.20F FOG
JOLIET*        CLOUDY    56  55  95 E8        30.19R FOG
WAUKEGAN       CLOUDY    46  44  93 NE9G20    30.20F
DUPAGE AIRPORT LGT RAIN  54  52  93 E13       30.16R
WHEELING       CLOUDY    50  48  93 NE9       30.20R
KANKAKEE*      CLOUDY    61  60  97 SE8       30.17F FOG
MORRIS*        LGT RAIN  56  55  96 E10       30.16R
LEWIS AIRPORT* CLOUDY    54  53  99 E8        30.18R FOG
NORTHERLY IS     N/A     48  46  93 N8          N/A
$$

WIZ051-052-058>065-066-070>072-051400-
SOUTHEAST WISCONSIN

CITY           SKY/WX    TMP DP  RH WIND       PRES   REMARKS
MILWAUKEE      LGT RAIN  45  41  86 NE16      30.25F
KENOSHA*       CLOUDY    47  44  90 NE13      30.22F
RACINE*        LGT RAIN  47  43  86 NE16      30.23F
BURLINGTON     RAIN      46  44  95 NE9       30.22S
WAUKESHA       CLOUDY    45  43  93 E9        30.25F
WEST BEND      DRIZZLE   46  41  81 NE9       30.27S
$$

INZ001>003-010>013-019-020-051400-
NORTHWEST INDIANA

CITY           SKY/WX    TMP DP  RH WIND       PRES   REMARKS
GARY*          LGT RAIN  50 N/A N/A N6        30.22S
MICHIGAN CITY* NOT AVBL
RENSSELAER*    NOT AVBL
VALPARAISO     CLOUDY    58  57  97 NE7       30.20F FOG
$$

LMZ740>746-051400-
SOUTHERN LAKE MICHIGAN

STATION/POSITION TIME  SKY/WX   TEMP WIND        PRES    VSBY
                                AIR  DIR/SP/G
                 (UTC)          (F)  (DEG/KT/KT) (MB)    (MI)
HARRISON CRIB    1300            46   40/ 18/ 21   N/A
BURNHAM HARBOR   1300            48   10/  9/ 16   N/A
CALUMET HARBOR   1200            47  340/ 10/ 12   N/A
BURNS HARBOR     1300            49   70/ 12/ 14 1022.7F
MICHIGAN CITY    1300            48   10/ 10/ 11   N/A
$$

ABBREVIATIONS USED IN REMARKS
   TC - TEMPERATURE IN CELSIUS
  WCI - WIND CHILL INDEX
   HX - HEAT INDEX
  VSB - VISIBILITY
$$


USA.gov is the U.S. government's official web portal to all federal, state and local government web resources and services.